Location: Star Dogged Moon Observatory
(29.7756°N, 82.0783°W)
Time: 20:27:33
(UTC-04:00)

ARGOS - Visible Passes

Search period start: 27 August 2015 00:00
Search period end: 06 September 2015 00:00
Orbit: 821 x 834 km, 98.7° (Epoch: 27 August)

Date Brightness Start Highest point End Pass type
(mag) Time Alt. Az. Time Alt. Az. Time Alt. Az.
27 Aug 5.0 22:57:40 24° N 22:57:40 24° N 22:59:43 10° N visible
28 Aug 5.0 22:39:02 21° NNE 22:39:02 21° NNE 22:40:59 10° N visible
29 Aug 5.1 22:20:24 18° NNE 22:20:24 18° NNE 22:22:03 10° NNE visible
30 Aug 6.0 00:01:56 12° NW 00:01:56 12° NW 00:02:17 10° NW visible
30 Aug 5.3 22:01:47 13° NE 22:01:47 13° NE 22:02:47 10° NNE visible
30 Aug 5.8 23:43:19 15° NNW 23:43:19 15° NNW 23:44:15 10° NNW visible
31 Aug 5.5 23:24:41 18° NNW 23:24:41 18° NNW 23:25:58 10° NNW visible
01 Sep 5.4 23:06:04 19° N 23:06:04 19° N 23:07:30 10° N visible
02 Sep 5.3 22:47:26 18° N 22:47:26 18° N 22:48:51 10° N visible
03 Sep 5.3 22:28:49 16° NNE 22:28:49 16° NNE 22:30:01 10° N visible
04 Sep 5.4 22:10:12 13° NNE 22:10:12 13° NNE 22:10:55 10° NNE visible
04 Sep 6.1 23:51:43 11° NNW 23:51:43 11° NNW 23:51:50 10° NNW visible
05 Sep 5.9 23:33:06 13° NNW 23:33:06 13° NNW 23:33:39 10° NNW visible
